This demonstration page uses our WeatherBlox Daily Observations layout. Learn more.

Left ArrowRight Arrow

Hourly Observations for September 20, 2021

Temp ( °F °C ) Dew Point ( °F °C ) Humidity (%) Winds ( mph kmh ) Pressure ( in mb ) Visibility ( mi km ) Precip ( " mm )
12:51 am 00:51 Clear 74 23.3 58 14.4 57 57 NNW 9 15 29.77 1008 10 16 N/A
1:51 am 01:51 Clear 74 23.3 57 13.9 56 56 NNW 8 13 29.77 1008 10 16 N/A
2:51 am 02:51 Clear 71 21.7 57 13.9 61 61 N 3 6 29.77 1008 10 16 N/A
3:51 am 03:51 Clear 70 21.1 57 13.9 64 64 N N/A 29.77 1008 10 16 N/A
4:51 am 04:51 Clear 66 18.9 57 13.9 73 73 E 5 7 29.80 1009 10 16 N/A
5:51 am 05:51 Clear 65 18.3 56 13.3 73 73 E 6 9 29.84 1011 10 16 N/A
6:51 am 06:51 Sunny 69 20.6 56 13.3 63 63 SE 5 7 29.87 1011 10 16 N/A
7:51 am 07:51 Sunny 77 25 58 14.4 52 52 NW 5 7 29.87 1012 10 16 N/A
8:51 am 08:51 Sunny 82 27.8 54 12.2 38 38 W 7 11 29.88 1012 10 16 N/A
9:51 am 09:51 Sunny 85 29.4 54 12.2 35 35 WNW 7 11 29.89 1012 10 16 N/A
10:51 am 10:51 Sunny 89 31.7 48 8.9 24 24 NW 7 11 29.88 1012 10 16 N/A
11:51 am 11:51 Sunny 91 32.8 51 10.6 26 26 NW 9 15 29.86 1011 10 16 N/A
12:51 pm 12:51 Sunny 92 33.3 51 10.6 25 25 WNW 10 17 29.85 1011 10 16 N/A
1:51 pm 13:51 Sunny 93 33.9 51 10.6 24 24 NW 15 24 29.82 1010 10 16 N/A
2:51 pm 14:51 Sunny 95 35 51 10.6 23 23 NW 18 30 29.80 1009 10 16 N/A
3:51 pm 15:51 Sunny 94 34.4 49 9.4 21 21 NNW 13 20 29.79 1009 10 16 N/A
4:51 pm 16:51 Sunny 92 33.3 48 8.9 22 22 NW 18 30 29.80 1009 10 16 N/A
5:51 pm 17:51 Sunny 89 31.7 47 8.3 23 23 NW 16 26 29.83 1010 10 16 N/A
6:51 pm 18:51 Clear 85 29.4 45 7.2 25 25 NW 12 19 29.85 1011 10 16 N/A
7:51 pm 19:51 Clear 83 28.3 46 7.8 27 27 NW 13 20 29.88 1012 10 16 N/A
8:51 pm 20:51 Clear 79 26.1 46 7.8 31 31 WNW 8 13 29.90 1013 10 16 N/A
9:51 pm 21:51 Clear 71 21.7 48 8.9 44 44 NW 8 13 29.92 1013 10 16 N/A
10:51 pm 22:51 Clear 70 21.1 42 5.6 37 37 WNW 7 11 29.93 1013 10 16 N/A
11:51 pm 23:51 Clear 67 19.4 42 5.6 41 41 NW 7 11 29.94 1014 10 16 N/A

Powered by AerisWeather